DF4WC-13 Weather Reports


time (UTC)temp
C
wind
direction
speed
KPH
gust
KPH
rain 1hr
cm
rain 24hr
cm
rain mn
cm
humidity
%
barometer
mb
20260507091719 -30 0 0.0 0.0 0.00 0.23 0.00 33 814.4
20260507084719 -30 0 0.0 0.0 0.00 0.23 0.00 34 814.4
20260507081719 -30 0 0.0 0.0 0.00 0.23 0.00 37 814.4
20260507074719 -30 0 0.0 0.0 0.00 0.23 0.00 48 814.4
20260507071719 -30 0 0.0 0.0 0.00 0.23 0.00 57 814.4
20260507064720 -30 0 0.0 0.0 0.00 0.23 0.00 59 814.4
20260507061720 -30 0 0.0 0.0 0.00 0.23 0.00 60 814.4
20260507054720 -30 0 0.0 0.0 0.00 0.23 0.00 60 814.4
20260507051720 -30 0 0.0 0.0 0.00 0.23 0.00 61 814.4
20260507044720 -30 0 0.0 0.0 0.00 0.23 0.00 60 814.4
20260507041720 -30 0 0.0 0.0 0.10 0.23 0.00 58 814.4
20260507034720 -30 0 0.0 0.0 0.10 0.18 0.00 55 814.4
20260507031720 -30 0 0.0 0.0 0.15 0.15 0.00 52 814.4
20260507024720 -30 0 0.0 0.0 0.10 0.10 0.00 48 814.4
20260507021720 -30 0 0.0 0.0 0.00 0.00 0.00 44 814.4
20260507014720 -30 0 0.0 0.0 0.00 0.05 0.00 41 814.4
20260507011720 -30 0 0.0 0.0 0.00 0.05 0.00 41 814.4
20260507004720 -30 0 0.0 0.0 0.00 0.05 0.00 41 814.4
20260507001720 -30 0 0.0 0.0 0.00 0.05 0.00 41 814.4
20260506234720 -30 0 0.0 0.0 0.00 0.05 0.00 42 814.4
20260506231720 -30 0 0.0 0.0 0.00 0.05 0.00 42 814.4
20260506224720 -30 0 0.0 0.0 0.00 0.10 0.00 42 814.4
20260506221720 -30 0 0.0 0.0 0.00 0.18 0.00 41 814.4
20260506214720 -30 0 0.0 0.0 0.00 0.38 0.00 41 814.4
20260506211720 -30 0 0.0 0.0 0.00 0.38 0.00 42 814.4
20260506204720 -30 0 0.0 0.0 0.00 0.38 0.00 42 814.4
20260506201720 -30 0 0.0 0.0 0.00 0.38 0.00 43 814.4
20260506194720 -30 0 0.0 0.0 0.00 0.38 0.00 39 814.4
20260506191720 -30 0 0.0 0.0 0.00 0.38 0.00 42 814.4
20260506184720 -30 0 0.0 0.0 0.00 0.38 0.00 42 814.4
20260506181720 -30 0 0.0 0.0 0.00 0.38 0.00 42 814.4
20260506174720 -30 0 0.0 0.0 0.00 0.38 0.00 41 814.4
20260506171718 -30 0 0.0 0.0 0.00 0.38 0.00 32 814.4
20260506164719 -30 0 0.0 0.0 0.00 0.43 0.00 25 814.4
20260506161719 -30 0 0.0 0.0 0.00 0.43 0.00 24 814.4
20260506154719 -30 0 0.0 0.0 0.00 0.43 0.00 23 814.4
20260506151719 -30 0 0.0 1.6 0.00 0.53 0.00 22 814.4
20260506144719 -30 0 0.0 0.0 0.00 0.79 0.00 22 814.4
20260506141719 -30 0 0.0 1.6 0.00 0.81 0.00 20 814.4
20260506134719 -30 0 0.0 0.0 0.00 0.86 0.00 20 814.4
20260506131719 -30 0 0.0 0.0 0.00 0.86 0.00 20 814.4
20260506124719 -30 0 0.0 0.0 0.00 0.86 0.00 20 814.4
20260506121719 -30 0 0.0 0.0 0.00 0.86 0.00 20 814.4
20260506114719 -30 0 0.0 1.6 0.00 0.86 0.00 21 814.4
20260506111719 -30 0 0.0 0.0 0.00 0.86 0.00 22 814.4
20260506104719 -30 0 0.0 0.0 0.00 0.86 0.00 21 814.4
20260506101719 -30 0 0.0 0.0 0.00 0.86 0.00 22 814.4
20260506094719 -30 0 0.0 0.0 0.00 0.86 0.00 22 814.4